SKYSAT-B

Last updated on Thu Oct 30 2025 00:02:31 GMT+0000 (Coordinated Universal Time)

1 40072U 14037D 25302.41576912 .00002595 00000+0 29597-3 0 9990 2 40072 98.3530 243.8083 0004693 319.8711 40.2156 14.87070852611652
UTC large
Height (km)
Speed (km/s)
/
Latitude / Longitude
Inclination (degrees)
Orbital Period (minutes)
Azimuth
Elevation
Range (km)
Doppler Factor

Next 0 passes for location: London (51.5072 / 0.1276)

Sorry there are no passes over London.